POLAR BEAR

Last updated on Sat Sep 05 2026 00:03:34 GMT+0000 (Coordinated Universal Time)

1 17070U 86088A 26247.56319468 .00000075 00000+0 65650-4 0 9995 2 17070 89.6255 173.2383 0040892 40.7922 132.7645 13.75299580996322
UTC large
Height (km)
Speed (km/s)
/
Latitude / Longitude
Inclination (degrees)
Orbital Period (minutes)
Azimuth
Elevation
Range (km)
Doppler Factor

Next 0 passes for location: London (51.5072 / 0.1276)

No passes found over London.
POLAR BEAR